This demonstration page uses our WeatherBlox Daily Observations layout. Learn more.

Left ArrowRight Arrow

39.29038, -76.61219

Hourly Observations for August 1, 2015

Temp ( °F °C ) Dew Point ( °F °C ) Humidity (%) Winds ( mph kmh ) Pressure ( in mb ) Visibility ( mi km ) Precip ( " mm )
12:54 am 00:54 Mostly Cloudy 78 25.6 60 15.6 54 54 undefined N/A 29.88 1012 N/A 0.00 0.00
1:54 am 01:54 Cloudy 77 25 61 16.1 58 58 undefined N/A 29.87 1012 N/A 0.00 0.00
2:54 am 02:54 undefined 76 24.4 61 16.1 60 60 undefined N/A 29.86 1011 N/A 0.00 0.00
3:54 am 03:54 undefined 76 24.4 62 16.7 62 62 undefined N/A 29.86 1011 N/A 0.00 0.00
4:54 am 04:54 undefined 75 23.9 62 16.7 64 64 undefined N/A 29.85 1011 N/A 0.00 0.00
5:54 am 05:54 undefined 75 23.9 61 16.1 62 62 undefined N/A 29.85 1011 N/A 0.00 0.00
6:54 am 06:54 Mostly Cloudy 78 25.5 73 22.7 85 85 undefined N/A 30.92 1047 N/A 0.00 0.00
7:54 am 07:54 undefined 79 26.1 61 16.1 54 54 undefined N/A 29.87 1011 N/A 0.00 0.00
8:54 am 08:54 undefined 81 27.2 60 15.6 49 49 undefined N/A 29.88 1012 N/A 0.00 0.00
9:54 am 09:54 undefined 82 27.8 61 16.1 49 49 undefined N/A 29.88 1012 N/A 0.00 0.00
10:54 am 10:54 Cloudy 81 27.2 75 24.1 83 83 undefined N/A 29.83 1010 N/A 0.00 0.00
11:54 am 11:54 Cloudy 85 29.4 59 15 42 42 undefined N/A 29.88 1012 N/A 0.00 0.00
12:54 pm 12:54 undefined 87 30.6 60 15.6 40 40 undefined N/A 29.87 1012 N/A 0.00 0.00
1:54 pm 13:54 undefined 88 31.1 56 13.3 34 34 undefined N/A 29.85 1011 N/A 0.00 0.00
2:54 pm 14:54 undefined 87 30.6 59 15 39 39 undefined N/A 29.85 1011 N/A 0.00 0.00
3:54 pm 15:54 undefined 88 31.1 58 14.4 36 36 undefined N/A 29.83 1010 N/A 0.00 0.00
4:54 pm 16:54 undefined 89 31.7 58 14.4 35 35 undefined N/A 29.83 1010 N/A 0.00 0.00
5:54 pm 17:54 undefined 88 31.1 57 13.9 35 35 undefined N/A 29.83 1010 N/A 0.00 0.00
6:54 pm 18:54 Mostly Sunny 86 30 66 18.9 51 51 undefined N/A 29.83 1010 N/A 0.00 0.00
7:54 pm 19:54 undefined 86 30 56 13.3 36 36 undefined N/A 29.84 1010 N/A 0.00 0.00
8:54 pm 20:54 undefined 85 29.4 57 13.9 39 39 undefined N/A 29.85 1011 N/A 0.00 0.00
9:54 pm 21:54 Mostly Clear 70 21.1 61 16 73 73 undefined N/A 29.81 1010 N/A 0.00 0.00
10:54 pm 22:54 undefined 82 27.8 57 13.9 42 42 undefined N/A 29.88 1012 N/A 0.00 0.00
11:54 pm 23:54 undefined 80 26.7 57 13.9 45 45 undefined N/A 29.89 1012 N/A 0.00 0.00

Powered by AerisWeather